Willimantic, CT

7:38 PM EDT on October 14, 2019 (GMT -0400)
Windham

Weather History for KIJD - August, 2019

Change the Weather History Date:

Thursday, August 29, 2019

  Actual Average Record
Temperature  
Mean Temperature 72 °F -  
Max Temperature 82 °F 80 °F 95 °F (1953)
Min Temperature 60 °F 57 °F 37 °F (1986)
Cooling Degree Days 6    
Growing Degree Days 22 (Base 50)    
Moisture  
Dew Point 63 °F    
Average Humidity 76    
Maximum Humidity 100    
Minimum Humidity 41    
Precipitation  
Precipitation 0.03 in - - ()
Sea Level Pressure  
Sea Level Pressure 29.85 in    
Wind  
Wind Speed 3 mph ()    
Max Wind Speed 13 mph    
Max Gust Speed -    
Visibility 10.0 miles    
Events Rain    
Averages and records for this station are not official NWS values.
T = Trace of Precipitation, MM = Missing Value Source: Averaged Metar Reports

Daily Weather History Graph

Daily Weather History Graph

Search for Another Location

Airport or City:

Astronomy

Aug. 29, 2019 Rise Set
Actual Time 6:11 AM EDT 7:27 PM EDT
Civil Twilight 5:42 AM EDT 7:56 PM EDT
Nautical Twilight 5:07 AM EDT 8:30 PM EDT
Astronomical Twilight 4:31 AM EDT 9:06 PM EDT
Moon 4:50 AM EDT (8/29) 7:23 PM EDT (8/29)
Length of Visible Light 14h 13m
Length of Day
13h 16m
Waning Crescent, 1% of the Moon is Illuminated
Aug 29
Waning Crescent
Aug 30
New
Sep 5
First Quarter
Sep 14
Full
Sep 21
Last Quarter

Hourly Weather History & Observations

Time (EDT) Temp. Heat Index Dew Point Humidity Pressure Visibility Wind Dir Wind Speed Gust Speed Precip Events Conditions
12:06 AM 69.1 °F - 69.1 °F 100% 29.82 in 10.0 mi Calm Calm - 0.00 in Rain Light Rain
12:52 AM 69.1 °F - 68.0 °F 96% 29.81 in 10.0 mi Calm Calm - 0.00 in Rain Light Rain
1:52 AM 69.1 °F - 68.0 °F 96% 29.80 in 10.0 mi Calm Calm - 0.02 in   Mostly Cloudy
2:04 AM 69.1 °F - 68.0 °F 96% 29.80 in 10.0 mi Calm Calm - N/A   Overcast
2:52 AM 69.1 °F - 68.0 °F 96% 29.79 in 10.0 mi Calm Calm - N/A   Overcast
3:52 AM 69.1 °F - 68.0 °F 96% 29.78 in 9.0 mi Calm Calm - 0.01 in Rain Light Rain
4:24 AM 69.1 °F - 68.0 °F 96% 29.79 in 10.0 mi Calm Calm - 0.00 in   Overcast
4:52 AM 69.1 °F - 66.9 °F 93% 29.80 in 10.0 mi North 3.5 mph - 0.00 in   Overcast
5:08 AM 69.1 °F - 66.9 °F 93% 29.80 in 10.0 mi NNW 3.5 mph - N/A   Overcast
5:27 AM 68.0 °F - 66.9 °F 96% 29.81 in 10.0 mi NW 4.6 mph - N/A   Mostly Cloudy
5:52 AM 68.0 °F - 66.0 °F 93% 29.82 in 10.0 mi NNW 4.6 mph - N/A   Overcast
6:52 AM 66.9 °F - 64.9 °F 93% 29.83 in 10.0 mi NNW 3.5 mph - N/A   Overcast
7:52 AM 68.0 °F - 64.9 °F 90% 29.82 in 10.0 mi North 5.8 mph - N/A   Partly Cloudy
8:52 AM 71.1 °F - 63.0 °F 75% 29.83 in 10.0 mi NNW 12.7 mph - N/A   Mostly Cloudy
9:52 AM 73.9 °F - 62.1 °F 66% 29.85 in 10.0 mi NW 8.1 mph - N/A   Partly Cloudy
10:52 AM 75.9 °F - 61.0 °F 60% 29.86 in 10.0 mi NNW 11.5 mph - N/A   Clear
11:52 AM 79.0 °F - 60.1 °F 52% 29.86 in 10.0 mi NNW 10.4 mph - N/A   Clear
12:52 PM 80.1 °F 80.7 °F 59.0 °F 48% 29.85 in 10.0 mi NNW 10.4 mph - N/A   Clear
1:52 PM 81.0 °F 81.6 °F 60.1 °F 49% 29.84 in 10.0 mi Variable 3.5 mph - N/A   Clear
2:52 PM 82.0 °F 81.6 °F 55.9 °F 41% 29.83 in 10.0 mi NNW 10.4 mph - N/A   Clear
3:52 PM 81.0 °F 81.1 °F 57.9 °F 45% 29.83 in 10.0 mi NW 8.1 mph - N/A   Clear
4:52 PM 81.0 °F 81.3 °F 59.0 °F 47% 29.84 in 10.0 mi WNW 8.1 mph - N/A   Scattered Clouds
5:52 PM 79.0 °F - 55.0 °F 44% 29.86 in 10.0 mi NNW 10.4 mph - N/A   Clear
6:52 PM 75.0 °F - 57.9 °F 55% 29.88 in 10.0 mi WNW 4.6 mph - N/A   Clear
7:52 PM 72.0 °F - 57.0 °F 59% 29.91 in 10.0 mi NW 3.5 mph - N/A   Clear
8:52 PM 70.0 °F - 57.9 °F 65% 29.95 in 10.0 mi WNW 3.5 mph - N/A   Clear
9:52 PM 66.0 °F - 57.9 °F 75% 29.97 in 10.0 mi South 3.5 mph - N/A   Clear
10:52 PM 61.0 °F - 57.9 °F 90% 29.98 in 10.0 mi Calm Calm - N/A   Clear
11:52 PM 60.1 °F - 57.9 °F 93% 29.97 in 10.0 mi Calm Calm - N/A   Clear